User: anonymous   Login
Location: Bothwell
(42.3833°S, 147.0000°E)
Time: 18:31:52
(UTC+10:00)
Language:

ESTCUBE 1 - Orbit

View from above orbital plane
View from above orbital plane
View from above satellite
View from above satellite

Ground track
Ground track

The orbit data is extracted from the following two-line orbital elements,

1 39161U 13021C   23161.16175534  .00001825  00000-0  28305-3 0  9999
2 39161  97.8718 233.6258 0009049   2.2441 357.8806 14.74299713542135
Epoch (UTC): 10 June 2023 03:52:55
Eccentricity: 0.0009049
inclination: 97.8718°
perigee height: 641 km
apogee height: 654 km
right ascension of ascending node: 233.6258°
argument of perigee: 2.2441°
revolutions per day: 14.74299713
mean anomaly at epoch: 357.8806°
orbit number at epoch: 54213

The dashed part of the orbit path shows where the satellite is in the earth's shadow,  

DLR